Location: Albuquerque Trailhead
(34.7934°N, 106.3736°W)
Time: 00:33:54
(UTC+00:00)

Cosmos 1818 - Pass Details

Date: 20 June 2021
Orbit: 771 x 802 km, 65.0° (Epoch: 01 August)

Event Time Altitude Azimuth Distance (km) Brightness Sun altitude
Exits shadow 11:03:42 - 203° (SSW) 2,571 5.7 -9.2°
Reaches altitude 10° 11:04:19 10° 203° (SSW) 2,336 5.5 -9.1°
Maximum altitude 11:09:41 79° 118° (ESE) 809 3.7 -8.2°
Drops below altitude 10° 11:15:09 10° 31° (NNE) 2,370 7.3 -7.3°
Sets 11:17:35 0° 31° (NNE) 3,307 8.2 -6.9°
